Hourly Data Report for October 22, 2016

All times are specified in Local Standard Time (LST). Add 1 hour to adjust for Daylight Saving Time where and when it is observed.

GRISE FIORD CLIMATE
NUNAVUT

76°25'22.040" N
82°54'08.020" W
44.50 m
2402351
71971
NGC

Download Data

Hourly Data (October 2016)
Hourly Data Report for October 22, 2016
Temp Definition
°C
Dew Point Temp Definition
°C
Rel Hum Definition
%
Wind Dir Definition
10's deg

Wind Spd Definition
km/h
Visibility Definition
km
Stn Press Definition
kPa
Hmdx Definition


Wind Chill Definition


Weather Definition


TIME
00:00 -16.3 -18.0 87 6 2   101.63   -18 LegendNANA
01:00 -15.7 -17.2 88 11 3   101.65   -18 LegendNANA
02:00 -16.2 -17.7 88 12 3   101.69   -18 LegendNANA
03:00 -16.5 -18.1 88 9 3   101.70   -19 LegendNANA
04:00 -16.2 -17.8 87 11 4   101.72   -19 LegendNANA
05:00 -17.0 -18.9 85 0 1   101.75   -18 LegendNANA
06:00 -17.4 -19.3 85 5 3   101.75   -20 LegendNANA
07:00 -16.0 -17.6 87 4 4   101.81   -19 LegendNANA
08:00 -14.8 -16.1 90 20 2   101.80   -16 LegendNANA
09:00
10:00 -13.3 -14.5 91 10 6   101.83   -17 LegendNANA
11:00 -13.8 -15.0 91 3 2   101.84   -15 LegendNANA
12:00 -12.6 -13.7 91 35 2   101.88   -14 LegendNANA
13:00 -12.2 -13.3 92 1 4   101.92   -15 LegendNANA
14:00 -11.7 -13.2 88 30 4   101.97   -14 LegendNANA
15:00 -8.6 -9.7 92 31 2   102.03   -10 LegendNANA
16:00 -10.4 -11.6 91 27 2   102.09   -12 LegendNANA
17:00 -7.5 -9.9 83 13 5   102.10   -10 LegendNANA
18:00
19:00 -7.7 -10.4 81 28 14   102.10   -14 LegendNANA
20:00 -8.1 -11.9 74 29 16   102.12   -15 LegendNANA
21:00 -10.3 -14.1 73 30 13   102.15   -17 LegendNANA
22:00 -8.8 -11.9 79 29 5   102.14   -12 LegendNANA
23:00 -8.8 -11.6 80 25 14   102.14   -15 LegendNANA

Notes on Data Quality.

Legend

  • E = Estimated
  • M = Missing
  • NA = Not Available
  • ‡ = Partner data that is not subject to review by the National Climate Archives
Date modified: